Time,TemperatureF,DewpointF,PressureIn,WindDirection,WindDirectionDegrees,WindSpeedMPH,WindSpeedGustMPH,Humidity,HourlyPrecipIn,Conditions,Clouds,dailyrainin,SoftwareType,DateUTC
2013-07-08 00:00:00,74.3,73.4,29.92,NW,305,0.0,1.0,97,0.00,,,0.00,VWS V14.01,2013-07-08 04:00:00,
2013-07-08 00:01:00,74.3,73.4,29.92,NW,305,0.0,0.0,97,0.00,,,0.00,VWS V14.01,2013-07-08 04:01:00,
2013-07-08 00:02:00,74.2,73.3,29.92,NW,305,0.0,0.0,97,0.00,,,0.00,VWS V14.01,2013-07-08 04:02:00,
2013-07-08 00:03:00,74.2,73.3,29.92,NW,305,0.0,0.0,97,0.00,,,0.00,VWS V14.01,2013-07-08 04:03:00,
2013-07-08 00:08:00,74.0,72.8,29.93,NW,305,0.0,0.0,96,0.00,,,0.00,VWS V14.01,2013-07-08 04:08:00,
2013-07-08 00:13:00,73.9,72.7,29.93,NW,305,0.0,1.0,96,0.00,,,0.00,VWS V14.01,2013-07-08 04:13:00,
2013-07-08 00:18:00,73.7,72.5,29.93,NW,305,0.0,1.0,96,0.00,,,0.00,VWS V14.01,2013-07-08 04:18:00,
2013-07-08 00:23:00,73.6,72.1,29.93,NW,305,0.0,1.0,95,0.00,,,0.00,VWS V14.01,2013-07-08 04:23:00,
2013-07-08 00:28:00,73.3,71.5,29.93,NW,305,0.0,1.0,94,0.00,,,0.00,VWS V14.01,2013-07-08 04:28:00,
2013-07-08 00:33:00,73.1,71.3,29.93,NW,305,0.0,0.0,94,0.00,,,0.00,VWS V14.01,2013-07-08 04:33:00,
2013-07-08 00:38:00,73.0,70.9,29.93,NW,305,0.0,0.0,93,0.00,,,0.00,VWS V14.01,2013-07-08 04:38:00,
2013-07-08 00:44:00,72.8,70.7,29.93,NW,305,0.0,0.0,93,0.00,,,0.00,VWS V14.01,2013-07-08 04:44:00,
2013-07-08 00:49:00,72.8,70.3,29.93,NW,305,0.0,0.0,92,0.00,,,0.00,VWS V14.01,2013-07-08 04:49:00,
2013-07-08 00:54:00,72.7,70.2,29.93,NW,305,0.0,0.0,92,0.00,,,0.00,VWS V14.01,2013-07-08 04:54:00,
2013-07-08 00:59:00,72.4,69.3,29.93,NW,305,0.0,0.0,90,0.00,,,0.00,VWS V14.01,2013-07-08 04:59:00,
2013-07-08 01:04:00,72.3,69.5,29.93,NW,305,0.0,0.0,91,0.00,,,0.00,VWS V14.01,2013-07-08 05:04:00,
2013-07-08 01:09:00,72.1,69.3,29.93,NW,305,0.0,0.0,91,0.00,,,0.00,VWS V14.01,2013-07-08 05:09:00,
2013-07-08 01:14:00,71.9,69.1,29.93,NW,305,0.0,0.0,91,0.00,,,0.00,VWS V14.01,2013-07-08 05:14:00,
2013-07-08 01:19:00,71.7,68.9,29.93,NW,305,0.0,0.0,91,0.00,,,0.00,VWS V14.01,2013-07-08 05:19:00,
2013-07-08 01:24:00,71.6,69.2,29.93,NW,305,0.0,0.0,92,0.00,,,0.00,VWS V14.01,2013-07-08 05:24:00,
2013-07-08 01:30:00,71.5,69.4,29.93,NW,305,0.0,0.0,93,0.00,,,0.00,VWS V14.01,2013-07-08 05:30:00,
2013-07-08 01:35:00,71.4,69.3,29.93,NW,305,0.0,0.0,93,0.00,,,0.00,VWS V14.01,2013-07-08 05:35:00,
2013-07-08 01:40:00,71.3,69.5,29.93,NW,305,0.0,0.0,94,0.00,,,0.00,VWS V14.01,2013-07-08 05:40:00,
2013-07-08 01:45:00,71.1,69.3,29.93,NW,305,0.0,0.0,94,0.00,,,0.00,VWS V14.01,2013-07-08 05:45:00,
2013-07-08 01:50:00,71.0,69.2,29.93,NW,305,0.0,0.0,94,0.00,,,0.00,VWS V14.01,2013-07-08 05:50:00,
2013-07-08 01:55:00,70.8,69.0,29.93,NW,305,0.0,0.0,94,0.00,,,0.00,VWS V14.01,2013-07-08 05:55:00,
2013-07-08 02:00:00,70.4,68.3,29.93,NW,305,0.0,0.0,93,0.00,,,0.00,VWS V14.01,2013-07-08 06:00:00,
2013-07-08 02:05:00,70.3,68.2,29.93,NW,305,0.0,0.0,93,0.00,,,0.00,VWS V14.01,2013-07-08 06:05:00,
2013-07-08 02:10:00,70.2,68.4,29.92,NW,305,0.0,0.0,94,0.00,,,0.00,VWS V14.01,2013-07-08 06:10:00,
2013-07-08 02:15:00,70.0,68.2,29.92,NW,305,0.0,0.0,94,0.00,,,0.00,VWS V14.01,2013-07-08 06:15:00,
2013-07-08 02:21:00,69.9,68.1,29.92,NW,305,0.0,0.0,94,0.00,,,0.00,VWS V14.01,2013-07-08 06:21:00,
2013-07-08 02:26:00,69.7,67.9,29.92,NW,305,0.0,0.0,94,0.00,,,0.00,VWS V14.01,2013-07-08 06:26:00,
2013-07-08 02:31:00,69.6,68.1,29.92,NW,305,0.0,0.0,95,0.00,,,0.00,VWS V14.01,2013-07-08 06:31:00,
2013-07-08 02:36:00,69.5,68.0,29.92,NW,305,0.0,0.0,95,0.00,,,0.00,VWS V14.01,2013-07-08 06:36:00,
2013-07-08 02:41:00,69.4,67.9,29.92,NW,305,0.0,0.0,95,0.00,,,0.00,VWS V14.01,2013-07-08 06:41:00,
2013-07-08 02:46:00,69.2,67.7,29.92,NW,305,0.0,0.0,95,0.00,,,0.00,VWS V14.01,2013-07-08 06:46:00,
2013-07-08 02:51:00,69.1,67.6,29.92,NW,305,0.0,0.0,95,0.00,,,0.00,VWS V14.01,2013-07-08 06:51:00,
2013-07-08 02:56:00,69.0,67.5,29.92,NW,305,0.0,0.0,95,0.00,,,0.00,VWS V14.01,2013-07-08 06:56:00,
2013-07-08 03:01:00,68.8,67.3,29.92,NW,305,0.0,0.0,95,0.00,,,0.00,VWS V14.01,2013-07-08 07:01:00,
2013-07-08 03:06:00,68.7,67.2,29.92,NW,305,0.0,0.0,95,0.00,,,0.00,VWS V14.01,2013-07-08 07:06:00,
2013-07-08 03:12:00,68.6,67.1,29.92,NW,305,0.0,0.0,95,0.00,,,0.00,VWS V14.01,2013-07-08 07:12:00,
2013-07-08 03:17:00,68.4,66.9,29.92,NW,305,0.0,0.0,95,0.00,,,0.00,VWS V14.01,2013-07-08 07:17:00,
2013-07-08 03:22:00,68.3,67.1,29.91,NW,305,0.0,0.0,96,0.00,,,0.00,VWS V14.01,2013-07-08 07:22:00,
2013-07-08 03:27:00,68.2,67.0,29.91,NW,305,0.0,0.0,96,0.00,,,0.00,VWS V14.01,2013-07-08 07:27:00,
2013-07-08 03:32:00,68.1,66.9,29.92,NW,305,0.0,0.0,96,0.00,,,0.00,VWS V14.01,2013-07-08 07:32:00,
2013-07-08 03:37:00,67.9,66.7,29.92,NW,305,0.0,0.0,96,0.00,,,0.00,VWS V14.01,2013-07-08 07:37:00,
2013-07-08 03:42:00,67.8,66.6,29.92,NW,305,0.0,0.0,96,0.00,,,0.00,VWS V14.01,2013-07-08 07:42:00,
2013-07-08 03:47:00,67.7,66.5,29.92,NW,305,0.0,0.0,96,0.00,,,0.00,VWS V14.01,2013-07-08 07:47:00,
2013-07-08 03:52:00,67.5,66.3,29.92,NW,305,0.0,0.0,96,0.00,,,0.00,VWS V14.01,2013-07-08 07:52:00,
2013-07-08 03:58:00,67.4,66.2,29.92,NW,305,0.0,0.0,96,0.00,,,0.00,VWS V14.01,2013-07-08 07:58:00,
2013-07-08 04:03:00,67.2,66.0,29.92,NW,305,0.0,0.0,96,0.00,,,0.00,VWS V14.01,2013-07-08 08:03:00,
2013-07-08 04:08:00,67.1,65.9,29.92,NW,305,0.0,0.0,96,0.00,,,0.00,VWS V14.01,2013-07-08 08:08:00,
2013-07-08 04:13:00,67.0,65.8,29.92,NW,305,0.0,0.0,96,0.00,,,0.00,VWS V14.01,2013-07-08 08:13:00,
2013-07-08 04:18:00,66.8,65.6,29.92,NW,305,0.0,0.0,96,0.00,,,0.00,VWS V14.01,2013-07-08 08:18:00,
2013-07-08 04:23:00,66.7,65.8,29.93,NW,305,0.0,0.0,97,0.00,,,0.00,VWS V14.01,2013-07-08 08:23:00,
2013-07-08 04:28:00,66.7,65.8,29.93,NW,305,0.0,0.0,97,0.00,,,0.00,VWS V14.01,2013-07-08 08:28:00,
2013-07-08 04:33:00,66.6,65.7,29.93,NW,305,0.0,0.0,97,0.00,,,0.00,VWS V14.01,2013-07-08 08:33:00,
2013-07-08 04:38:00,66.6,65.7,29.93,NW,305,0.0,0.0,97,0.00,,,0.00,VWS V14.01,2013-07-08 08:38:00,
2013-07-08 04:43:00,66.6,65.7,29.93,NW,305,0.0,0.0,97,0.00,,,0.00,VWS V14.01,2013-07-08 08:43:00,
2013-07-08 04:49:00,66.5,65.6,29.93,NW,305,0.0,0.0,97,0.00,,,0.00,VWS V14.01,2013-07-08 08:49:00,
2013-07-08 04:54:00,66.5,65.6,29.93,NW,305,0.0,0.0,97,0.00,,,0.00,VWS V14.01,2013-07-08 08:54:00,
2013-07-08 04:59:00,66.6,66.0,29.93,NW,305,0.0,0.0,98,0.00,,,0.00,VWS V14.01,2013-07-08 08:59:00,
2013-07-08 05:04:00,66.8,65.9,29.93,NW,305,0.0,0.0,97,0.00,,,0.00,VWS V14.01,2013-07-08 09:04:00,
2013-07-08 05:09:00,66.9,66.0,29.93,NW,305,0.0,0.0,97,0.00,,,0.00,VWS V14.01,2013-07-08 09:09:00,
2013-07-08 05:14:00,66.9,66.0,29.93,NW,305,0.0,0.0,97,0.00,,,0.00,VWS V14.01,2013-07-08 09:14:00,
2013-07-08 05:19:00,66.9,66.0,29.93,NW,305,0.0,0.0,97,0.00,,,0.00,VWS V14.01,2013-07-08 09:19:00,
2013-07-08 05:25:00,67.0,66.1,29.94,NW,305,0.0,0.0,97,0.00,,,0.00,VWS V14.01,2013-07-08 09:25:00,
2013-07-08 05:30:00,67.1,66.2,29.94,NW,305,0.0,0.0,97,0.00,,,0.00,VWS V14.01,2013-07-08 09:30:00,
2013-07-08 05:35:00,67.0,66.1,29.94,NW,305,0.0,0.0,97,0.00,,,0.00,VWS V14.01,2013-07-08 09:35:00,
2013-07-08 05:40:00,67.0,66.1,29.94,NW,305,0.0,0.0,97,0.00,,,0.00,VWS V14.01,2013-07-08 09:40:00,
2013-07-08 05:45:00,66.9,66.0,29.95,NNW,347,0.0,0.0,97,0.00,,,0.00,VWS V14.01,2013-07-08 09:45:00,
2013-07-08 05:50:00,66.8,65.9,29.95,NNW,347,0.0,0.0,97,0.00,,,0.00,VWS V14.01,2013-07-08 09:50:00,
2013-07-08 05:55:00,66.7,65.8,29.95,NNW,347,0.0,0.0,97,0.00,,,0.00,VWS V14.01,2013-07-08 09:55:00,
2013-07-08 06:00:00,66.7,65.8,29.95,NW,321,0.0,0.0,97,0.00,,,0.00,VWS V14.01,2013-07-08 10:00:00,
2013-07-08 06:06:00,66.7,65.8,29.96,NW,321,0.0,0.0,97,0.00,,,0.00,VWS V14.01,2013-07-08 10:06:00,
2013-07-08 06:11:00,66.7,65.8,29.96,NW,321,0.0,0.0,97,0.00,,,0.00,VWS V14.01,2013-07-08 10:11:00,
2013-07-08 06:16:00,66.6,65.7,29.96,NW,321,0.0,0.0,97,0.00,,,0.00,VWS V14.01,2013-07-08 10:16:00,
2013-07-08 06:21:00,66.7,66.1,29.96,NW,321,0.0,0.0,98,0.00,,,0.00,VWS V14.01,2013-07-08 10:21:00,
2013-07-08 06:26:00,66.7,66.1,29.96,NW,321,0.0,0.0,98,0.00,,,0.00,VWS V14.01,2013-07-08 10:26:00,
2013-07-08 06:31:00,66.8,66.2,29.96,NW,321,0.0,0.0,98,0.00,,,0.00,VWS V14.01,2013-07-08 10:31:00,
2013-07-08 06:36:00,67.0,66.4,29.96,North,9,0.0,0.0,98,0.00,,,0.00,VWS V14.01,2013-07-08 10:36:00,
2013-07-08 06:41:00,67.3,66.7,29.96,North,9,0.0,0.0,98,0.00,,,0.00,VWS V14.01,2013-07-08 10:41:00,
2013-07-08 06:46:00,67.7,67.1,29.96,North,9,0.0,0.0,98,0.00,,,0.00,VWS V14.01,2013-07-08 10:46:00,
2013-07-08 06:51:00,68.1,67.8,29.96,North,9,0.0,0.0,99,0.00,,,0.00,VWS V14.01,2013-07-08 10:51:00,
2013-07-08 06:57:00,68.4,68.1,29.96,North,9,0.0,0.0,99,0.00,,,0.00,VWS V14.01,2013-07-08 10:57:00,
2013-07-08 07:02:00,68.8,68.5,29.97,North,9,0.0,0.0,99,0.00,,,0.00,VWS V14.01,2013-07-08 11:02:00,
2013-07-08 07:07:00,69.1,68.5,29.96,North,9,0.0,0.0,98,0.00,,,0.00,VWS V14.01,2013-07-08 11:07:00,
2013-07-08 07:12:00,69.3,68.7,29.97,North,9,0.0,0.0,98,0.00,,,0.00,VWS V14.01,2013-07-08 11:12:00,
2013-07-08 07:17:00,69.5,68.9,29.97,ENE,74,0.0,3.0,98,0.00,,,0.00,VWS V14.01,2013-07-08 11:17:00,
2013-07-08 07:22:00,69.8,69.2,29.97,ENE,74,0.0,3.0,98,0.00,,,0.00,VWS V14.01,2013-07-08 11:22:00,
2013-07-08 07:27:00,70.0,69.1,29.97,ENE,74,0.0,3.0,97,0.00,,,0.00,VWS V14.01,2013-07-08 11:27:00,
2013-07-08 07:32:00,70.3,69.4,29.97,ENE,74,0.0,2.0,97,0.00,,,0.00,VWS V14.01,2013-07-08 11:32:00,
2013-07-08 07:37:00,70.4,69.2,29.98,ENE,74,0.0,2.0,96,0.00,,,0.00,VWS V14.01,2013-07-08 11:37:00,
2013-07-08 07:42:00,70.5,69.3,29.98,ENE,74,0.0,2.0,96,0.00,,,0.00,VWS V14.01,2013-07-08 11:42:00,
2013-07-08 07:47:00,70.8,69.6,29.97,ENE,74,1.0,2.0,96,0.00,,,0.00,VWS V14.01,2013-07-08 11:47:00,
2013-07-08 07:52:00,71.1,69.6,29.98,East,89,1.0,3.0,95,0.00,,,0.00,VWS V14.01,2013-07-08 11:52:00,
2013-07-08 07:57:00,71.7,70.2,29.98,East,89,0.0,3.0,95,0.00,,,0.00,VWS V14.01,2013-07-08 11:57:00,
2013-07-08 08:02:00,72.6,70.8,29.98,ENE,78,0.0,1.0,94,0.00,,,0.00,VWS V14.01,2013-07-08 12:02:00,
2013-07-08 08:07:00,73.5,71.0,29.98,East,82,0.0,3.0,92,0.00,,,0.00,VWS V14.01,2013-07-08 12:07:00,
2013-07-08 08:13:00,74.3,71.2,29.98,East,82,0.0,3.0,90,0.00,,,0.00,VWS V14.01,2013-07-08 12:13:00,
2013-07-08 08:18:00,75.3,71.8,29.98,East,82,0.0,3.0,89,0.00,,,0.00,VWS V14.01,2013-07-08 12:18:00,
2013-07-08 08:23:00,76.1,71.9,29.98,ENE,71,0.0,3.0,87,0.00,,,0.00,VWS V14.01,2013-07-08 12:23:00,
2013-07-08 08:28:00,76.8,72.3,29.98,SSE,153,0.0,4.0,86,0.00,,,0.00,VWS V14.01,2013-07-08 12:28:00,
2013-07-08 08:33:00,77.5,72.3,29.98,NE,38,2.0,2.0,84,0.00,,,0.00,VWS V14.01,2013-07-08 12:33:00,
2013-07-08 08:38:00,78.0,72.8,29.98,ESE,110,0.0,2.0,84,0.00,,,0.00,VWS V14.01,2013-07-08 12:38:00,
2013-07-08 08:43:00,78.4,73.2,29.98,East,93,0.0,4.0,84,0.00,,,0.00,VWS V14.01,2013-07-08 12:43:00,
2013-07-08 08:48:00,78.8,72.8,29.98,SSE,148,0.0,4.0,82,0.00,,,0.00,VWS V14.01,2013-07-08 12:48:00,
2013-07-08 08:53:00,79.6,73.6,29.98,SSE,150,0.0,4.0,82,0.00,,,0.00,VWS V14.01,2013-07-08 12:53:00,
2013-07-08 08:58:00,80.2,73.8,29.98,South,175,0.0,4.0,81,0.00,,,0.00,VWS V14.01,2013-07-08 12:58:00,
2013-07-08 09:03:00,80.3,73.2,29.98,NW,321,0.0,1.0,79,0.00,,,0.00,VWS V14.01,2013-07-08 13:03:00,
2013-07-08 09:09:00,80.8,74.1,29.97,East,80,0.0,3.0,80,0.00,,,0.00,VWS V14.01,2013-07-08 13:09:00,
2013-07-08 09:14:00,80.6,72.3,29.97,SSE,157,0.0,5.0,76,0.00,,,0.00,VWS V14.01,2013-07-08 13:14:00,
2013-07-08 09:19:00,80.9,74.2,29.97,SSE,157,0.0,5.0,80,0.00,,,0.00,VWS V14.01,2013-07-08 13:19:00,
2013-07-08 09:24:00,81.4,73.9,29.97,SSE,157,0.0,5.0,78,0.00,,,0.00,VWS V14.01,2013-07-08 13:24:00,
2013-07-08 09:29:00,82.1,75.3,29.97,SE,132,1.0,5.0,80,0.00,,,0.00,VWS V14.01,2013-07-08 13:29:00,
2013-07-08 09:34:00,82.6,75.1,29.97,SE,132,0.0,1.0,78,0.00,,,0.00,VWS V14.01,2013-07-08 13:34:00,
2013-07-08 09:39:00,82.7,74.8,29.97,SE,140,0.0,1.0,77,0.00,,,0.00,VWS V14.01,2013-07-08 13:39:00,
2013-07-08 09:44:00,82.6,73.9,29.97,NE,53,0.0,3.0,75,0.00,,,0.00,VWS V14.01,2013-07-08 13:44:00,
2013-07-08 09:49:00,82.8,74.5,29.97,ESE,115,1.0,3.0,76,0.00,,,0.00,VWS V14.01,2013-07-08 13:49:00,
2013-07-08 09:54:00,83.2,75.2,29.97,ESE,114,0.0,3.0,77,0.00,,,0.00,VWS V14.01,2013-07-08 13:54:00,
2013-07-08 09:59:00,83.3,72.9,29.97,NNE,22,1.0,4.0,71,0.00,,,0.00,VWS V14.01,2013-07-08 13:59:00,
2013-07-08 10:04:00,83.0,73.5,29.97,East,82,0.0,4.0,73,0.00,,,0.00,VWS V14.01,2013-07-08 14:04:00,
2013-07-08 10:10:00,83.0,75.1,29.97,SE,134,0.0,4.0,77,0.00,,,0.00,VWS V14.01,2013-07-08 14:10:00,
2013-07-08 10:15:00,83.5,74.8,29.98,SE,134,1.0,4.0,75,0.00,,,0.00,VWS V14.01,2013-07-08 14:15:00,
2013-07-08 10:20:00,82.9,73.4,29.98,SE,134,1.0,4.0,73,0.00,,,0.00,VWS V14.01,2013-07-08 14:20:00,
2013-07-08 10:25:00,82.4,72.9,29.98,NNW,348,0.0,4.0,73,0.00,,,0.00,VWS V14.01,2013-07-08 14:25:00,
2013-07-08 10:30:00,82.8,74.1,29.98,East,99,0.0,5.0,75,0.00,,,0.00,VWS V14.01,2013-07-08 14:30:00,
2013-07-08 10:35:00,83.1,73.1,29.98,NNW,336,0.0,3.0,72,0.00,,,0.00,VWS V14.01,2013-07-08 14:35:00,
2013-07-08 10:40:00,82.8,72.4,29.98,South,180,0.0,7.0,71,0.00,,,0.00,VWS V14.01,2013-07-08 14:40:00,
2013-07-08 10:45:00,83.0,74.3,29.98,SSE,148,0.0,7.0,75,0.00,,,0.00,VWS V14.01,2013-07-08 14:45:00,
2013-07-08 10:50:00,83.6,74.8,29.98,NE,40,1.0,7.0,75,0.00,,,0.00,VWS V14.01,2013-07-08 14:50:00,
2013-07-08 10:55:00,83.9,73.1,29.98,ESE,123,0.0,7.0,70,0.00,,,0.00,VWS V14.01,2013-07-08 14:55:00,
2013-07-08 11:00:00,83.6,74.0,29.98,East,90,1.0,7.0,73,0.00,,,0.00,VWS V14.01,2013-07-08 15:00:00,
2013-07-08 11:06:00,83.9,73.5,29.98,SE,139,1.0,5.0,71,0.00,,,0.00,VWS V14.01,2013-07-08 15:06:00,
2013-07-08 11:11:00,83.2,73.2,29.98,SE,134,0.0,5.0,72,0.00,,,0.00,VWS V14.01,2013-07-08 15:11:00,
2013-07-08 11:16:00,83.4,74.7,29.98,East,85,0.0,5.0,75,0.00,,,0.00,VWS V14.01,2013-07-08 15:16:00,
2013-07-08 11:21:00,83.9,73.1,29.98,ESE,123,0.0,5.0,70,0.00,,,0.00,VWS V14.01,2013-07-08 15:21:00,
2013-07-08 11:26:00,84.4,73.6,29.98,NNE,23,3.0,5.0,70,0.00,,,0.00,VWS V14.01,2013-07-08 15:26:00,
2013-07-08 11:31:00,84.9,74.4,29.98,NE,56,2.0,2.0,71,0.00,,,0.00,VWS V14.01,2013-07-08 15:31:00,
2013-07-08 11:36:00,85.2,73.9,29.98,NW,324,1.0,2.0,69,0.00,,,0.00,VWS V14.01,2013-07-08 15:36:00,
2013-07-08 11:41:00,85.6,72.9,29.98,SE,138,0.0,3.0,66,0.00,,,0.00,VWS V14.01,2013-07-08 15:41:00,
2013-07-08 11:47:00,85.8,72.7,29.98,SE,144,1.0,4.0,65,0.00,,,0.00,VWS V14.01,2013-07-08 15:47:00,
2013-07-08 11:52:00,85.8,74.0,29.98,NW,307,1.0,4.0,68,0.00,,,0.00,VWS V14.01,2013-07-08 15:52:00,
2013-07-08 11:57:00,85.8,73.1,29.98,East,98,0.0,5.0,66,0.00,,,0.00,VWS V14.01,2013-07-08 15:57:00,
2013-07-08 12:02:00,85.7,74.4,29.98,NNW,333,1.0,3.0,69,0.00,,,0.00,VWS V14.01,2013-07-08 16:02:00,
2013-07-08 12:07:00,85.6,73.8,29.98,East,99,0.0,4.0,68,0.00,,,0.00,VWS V14.01,2013-07-08 16:07:00,
2013-07-08 12:12:00,85.8,74.5,29.98,ESE,121,0.0,5.0,69,0.00,,,0.00,VWS V14.01,2013-07-08 16:12:00,
2013-07-08 12:17:00,85.5,74.6,29.98,North,5,0.0,5.0,70,0.00,,,0.00,VWS V14.01,2013-07-08 16:17:00,
2013-07-08 12:22:00,85.3,73.6,29.98,ESE,113,0.0,5.0,68,0.00,,,0.00,VWS V14.01,2013-07-08 16:22:00,
2013-07-08 12:27:00,84.6,72.0,29.98,SE,145,0.0,5.0,66,0.00,,,0.00,VWS V14.01,2013-07-08 16:27:00,
2013-07-08 12:32:00,84.5,74.9,29.98,ESE,117,0.0,6.0,73,0.00,,,0.00,VWS V14.01,2013-07-08 16:32:00,
2013-07-08 12:37:00,84.8,73.1,29.98,NNW,338,0.0,6.0,68,0.00,,,0.00,VWS V14.01,2013-07-08 16:37:00,
2013-07-08 12:42:00,84.9,74.4,29.98,ESE,119,1.0,6.0,71,0.00,,,0.00,VWS V14.01,2013-07-08 16:42:00,
2013-07-08 12:47:00,85.3,74.4,29.98,ESE,121,0.0,6.0,70,0.00,,,0.00,VWS V14.01,2013-07-08 16:47:00,
2013-07-08 12:52:00,85.6,72.9,29.98,WSW,244,1.0,6.0,66,0.00,,,0.00,VWS V14.01,2013-07-08 16:52:00,
2013-07-08 12:58:00,85.6,73.8,29.98,East,95,0.0,6.0,68,0.00,,,0.00,VWS V14.01,2013-07-08 16:58:00,
2013-07-08 13:03:00,85.4,73.6,29.98,East,95,1.0,5.0,68,0.00,,,0.00,VWS V14.01,2013-07-08 17:03:00,
2013-07-08 13:08:00,84.4,72.2,29.98,ESE,102,0.0,5.0,67,0.00,,,0.00,VWS V14.01,2013-07-08 17:08:00,
2013-07-08 13:13:00,84.1,74.9,29.98,ESE,102,0.0,5.0,74,0.00,,,0.00,VWS V14.01,2013-07-08 17:13:00,
2013-07-08 13:18:00,84.0,73.6,29.98,ENE,67,0.0,5.0,71,0.00,,,0.00,VWS V14.01,2013-07-08 17:18:00,
2013-07-08 13:24:00,84.1,74.5,29.98,ENE,67,0.0,5.0,73,0.00,,,0.00,VWS V14.01,2013-07-08 17:24:00,
2013-07-08 13:29:00,84.2,73.4,29.98,East,81,0.0,5.0,70,0.00,,,0.00,VWS V14.01,2013-07-08 17:29:00,
2013-07-08 13:34:00,84.4,75.6,29.98,East,81,0.0,1.0,75,0.00,,,0.00,VWS V14.01,2013-07-08 17:34:00,
2013-07-08 13:39:00,84.6,76.2,29.98,East,81,0.0,1.0,76,0.00,,,0.00,VWS V14.01,2013-07-08 17:39:00,
2013-07-08 13:44:00,85.3,74.4,29.98,ESE,121,0.0,2.0,70,0.00,,,0.00,VWS V14.01,2013-07-08 17:44:00,
2013-07-08 13:49:00,85.9,75.0,29.97,ENE,74,2.0,5.0,70,0.00,,,0.00,VWS V14.01,2013-07-08 17:49:00,
2013-07-08 13:55:00,85.9,74.1,29.97,NNW,331,1.0,5.0,68,0.00,,,0.00,VWS V14.01,2013-07-08 17:55:00,
2013-07-08 14:00:00,85.7,73.9,29.97,NW,313,0.0,5.0,68,0.00,,,0.00,VWS V14.01,2013-07-08 18:00:00,
2013-07-08 14:05:00,85.7,74.4,29.96,East,91,1.0,4.0,69,0.00,,,0.00,VWS V14.01,2013-07-08 18:05:00,
2013-07-08 14:10:00,85.8,75.3,29.96,East,91,0.0,4.0,71,0.00,,,0.00,VWS V14.01,2013-07-08 18:10:00,
2013-07-08 14:16:00,86.0,75.9,29.96,East,80,0.0,4.0,72,0.00,,,0.00,VWS V14.01,2013-07-08 18:16:00,
2013-07-08 14:21:00,86.5,73.3,29.96,SSE,163,0.0,4.0,65,0.00,,,0.00,VWS V14.01,2013-07-08 18:21:00,
2013-07-08 14:26:00,86.5,72.9,29.96,SSE,150,2.0,5.0,64,0.00,,,0.00,VWS V14.01,2013-07-08 18:26:00,
2013-07-08 14:31:00,86.3,72.7,29.96,SSE,157,0.0,2.0,64,0.00,,,0.00,VWS V14.01,2013-07-08 18:31:00,
2013-07-08 14:36:00,86.6,73.9,29.96,SE,138,0.0,2.0,66,0.00,,,0.00,VWS V14.01,2013-07-08 18:36:00,
2013-07-08 14:41:00,86.9,72.3,29.96,South,190,0.0,3.0,62,0.00,,,0.00,VWS V14.01,2013-07-08 18:41:00,
2013-07-08 14:46:00,87.2,73.6,29.95,NE,35,0.0,4.0,64,0.00,,,0.00,VWS V14.01,2013-07-08 18:46:00,
2013-07-08 14:52:00,87.7,74.0,29.95,East,89,3.0,5.0,64,0.00,,,0.00,VWS V14.01,2013-07-08 18:52:00,
2013-07-08 14:57:00,87.6,73.9,29.95,ESE,121,0.0,7.0,64,0.00,,,0.00,VWS V14.01,2013-07-08 18:57:00,
2013-07-08 15:02:00,87.6,73.0,29.95,NNE,12,0.0,4.0,62,0.00,,,0.00,VWS V14.01,2013-07-08 19:02:00,
2013-07-08 15:07:00,87.8,75.0,29.95,South,177,1.0,4.0,66,0.00,,,0.00,VWS V14.01,2013-07-08 19:07:00,
2013-07-08 15:12:00,88.2,73.1,29.95,ENE,71,1.0,4.0,61,0.00,,,0.00,VWS V14.01,2013-07-08 19:12:00,
2013-07-08 15:18:00,88.1,75.8,29.95,East,96,0.0,5.0,67,0.00,,,0.00,VWS V14.01,2013-07-08 19:18:00,
2013-07-08 15:23:00,88.1,73.4,29.94,SE,140,0.0,5.0,62,0.00,,,0.00,VWS V14.01,2013-07-08 19:23:00,
2013-07-08 15:28:00,88.3,74.1,29.94,SSE,157,0.0,5.0,63,0.00,,,0.00,VWS V14.01,2013-07-08 19:28:00,
2013-07-08 15:33:00,88.2,75.4,29.95,East,80,1.0,4.0,66,0.00,,,0.00,VWS V14.01,2013-07-08 19:33:00,
2013-07-08 15:38:00,87.8,72.7,29.95,ESE,109,0.0,5.0,61,0.00,,,0.00,VWS V14.01,2013-07-08 19:38:00,
2013-07-08 15:43:00,87.6,72.5,29.94,South,178,1.0,6.0,61,0.00,,,0.00,VWS V14.01,2013-07-08 19:43:00,
2013-07-08 15:49:00,87.4,72.3,29.94,South,178,0.0,6.0,61,0.00,,,0.00,VWS V14.01,2013-07-08 19:49:00,
2013-07-08 15:54:00,87.4,75.1,29.95,SSE,161,0.0,6.0,67,0.00,,,0.00,VWS V14.01,2013-07-08 19:54:00,
2013-07-08 15:59:00,87.2,74.0,29.95,SSE,161,0.0,6.0,65,0.00,,,0.00,VWS V14.01,2013-07-08 19:59:00,
2013-07-08 16:04:00,87.1,74.8,29.95,SSE,166,0.0,2.0,67,0.00,,,0.00,VWS V14.01,2013-07-08 20:04:00,
2013-07-08 16:09:00,86.6,72.5,29.94,NW,317,0.0,3.0,63,0.00,,,0.00,VWS V14.01,2013-07-08 20:09:00,
2013-07-08 16:15:00,86.4,73.7,29.94,NW,317,0.0,3.0,66,0.00,,,0.00,VWS V14.01,2013-07-08 20:15:00,
2013-07-08 16:20:00,86.2,73.5,29.93,NW,317,0.0,3.0,66,0.00,,,0.00,VWS V14.01,2013-07-08 20:20:00,
2013-07-08 16:25:00,85.9,73.7,29.94,NNE,21,0.0,3.0,67,0.00,,,0.00,VWS V14.01,2013-07-08 20:25:00,
2013-07-08 16:30:00,85.7,73.9,29.94,ENE,72,0.0,3.0,68,0.00,,,0.00,VWS V14.01,2013-07-08 20:30:00,
2013-07-08 16:36:00,85.2,74.7,29.94,ENE,72,1.0,1.0,71,0.00,,,0.00,VWS V14.01,2013-07-08 20:36:00,
2013-07-08 16:41:00,84.6,74.2,29.94,ENE,72,0.0,1.0,71,0.00,,,0.00,VWS V14.01,2013-07-08 20:41:00,
2013-07-08 16:46:00,84.4,72.2,29.94,ENE,72,0.0,1.0,67,0.00,,,0.00,VWS V14.01,2013-07-08 20:46:00,
2013-07-08 16:51:00,84.3,74.7,29.94,ENE,72,0.0,1.0,73,0.00,,,0.00,VWS V14.01,2013-07-08 20:51:00,
2013-07-08 16:56:00,84.1,74.1,29.94,SE,130,0.0,1.0,72,0.00,,,0.00,VWS V14.01,2013-07-08 20:56:00,
2013-07-08 17:02:00,84.1,74.1,29.94,SE,130,0.0,0.0,72,0.00,,,0.00,VWS V14.01,2013-07-08 21:02:00,
2013-07-08 17:07:00,84.1,73.7,29.94,SE,130,0.0,1.0,71,0.00,,,0.00,VWS V14.01,2013-07-08 21:07:00,
2013-07-08 17:12:00,84.1,75.3,29.94,SE,128,0.0,1.0,75,0.00,,,0.00,VWS V14.01,2013-07-08 21:12:00,
2013-07-08 17:17:00,84.1,74.9,29.94,SE,130,0.0,1.0,74,0.00,,,0.00,VWS V14.01,2013-07-08 21:17:00,
2013-07-08 17:22:00,83.9,74.3,29.93,SE,130,0.0,1.0,73,0.00,,,0.00,VWS V14.01,2013-07-08 21:22:00,
2013-07-08 17:27:00,84.0,76.0,29.93,SE,130,0.0,1.0,77,0.00,,,0.00,VWS V14.01,2013-07-08 21:27:00,
2013-07-08 17:32:00,83.8,75.8,29.93,South,185,0.0,0.0,77,0.00,,,0.00,VWS V14.01,2013-07-08 21:32:00,
2013-07-08 17:37:00,83.5,74.3,29.93,South,185,0.0,1.0,74,0.00,,,0.00,VWS V14.01,2013-07-08 21:37:00,
2013-07-08 17:42:00,83.4,74.7,29.93,South,185,0.0,1.0,75,0.00,,,0.00,VWS V14.01,2013-07-08 21:42:00,
2013-07-08 17:47:00,83.1,73.6,29.93,South,185,0.0,1.0,73,0.00,,,0.00,VWS V14.01,2013-07-08 21:47:00,
2013-07-08 17:53:00,82.9,75.3,29.93,South,185,0.0,1.0,78,0.00,,,0.00,VWS V14.01,2013-07-08 21:53:00,
2013-07-08 17:58:00,82.4,74.1,29.93,South,185,0.0,1.0,76,0.00,,,0.00,VWS V14.01,2013-07-08 21:58:00,
2013-07-08 18:03:00,81.9,74.4,29.93,South,185,0.0,0.0,78,0.00,,,0.00,VWS V14.01,2013-07-08 22:03:00,
2013-07-08 18:08:00,81.6,74.1,29.93,South,185,0.0,0.0,78,0.00,,,0.00,VWS V14.01,2013-07-08 22:08:00,
2013-07-08 18:13:00,81.3,74.2,29.93,South,185,0.0,0.0,79,0.00,,,0.00,VWS V14.01,2013-07-08 22:13:00,
2013-07-08 18:19:00,81.1,73.6,29.93,South,185,0.0,0.0,78,0.00,,,0.00,VWS V14.01,2013-07-08 22:19:00,
2013-07-08 18:24:00,80.9,74.2,29.93,South,185,0.0,0.0,80,0.00,,,0.00,VWS V14.01,2013-07-08 22:24:00,
2013-07-08 18:29:00,80.9,74.5,29.93,South,185,0.0,0.0,81,0.00,,,0.00,VWS V14.01,2013-07-08 22:29:00,
2013-07-08 18:35:00,80.8,74.4,29.93,South,185,0.0,0.0,81,0.00,,,0.00,VWS V14.01,2013-07-08 22:35:00,
2013-07-08 18:40:00,80.8,74.4,29.93,South,185,0.0,0.0,81,0.00,,,0.00,VWS V14.01,2013-07-08 22:40:00,
2013-07-08 18:45:00,80.8,74.4,29.93,South,185,0.0,0.0,81,0.00,,,0.00,VWS V14.01,2013-07-08 22:45:00,
2013-07-08 18:50:00,80.7,74.3,29.93,South,185,0.0,0.0,81,0.00,,,0.00,VWS V14.01,2013-07-08 22:50:00,
2013-07-08 18:55:00,80.7,74.3,29.94,South,185,0.0,0.0,81,0.00,,,0.00,VWS V14.01,2013-07-08 22:55:00,
2013-07-08 19:00:00,80.5,74.1,29.94,South,185,0.0,0.0,81,0.00,,,0.00,VWS V14.01,2013-07-08 23:00:00,
2013-07-08 19:05:00,80.4,74.4,29.94,South,185,0.0,0.0,82,0.00,,,0.00,VWS V14.01,2013-07-08 23:05:00,
2013-07-08 19:10:00,80.2,74.2,29.94,South,185,0.0,0.0,82,0.00,,,0.00,VWS V14.01,2013-07-08 23:10:00,
2013-07-08 19:16:00,80.0,74.0,29.94,South,185,0.0,0.0,82,0.00,,,0.00,VWS V14.01,2013-07-08 23:16:00,
2013-07-08 19:21:00,79.8,74.2,29.95,South,185,0.0,0.0,83,0.00,,,0.00,VWS V14.01,2013-07-08 23:21:00,
2013-07-08 19:26:00,79.5,73.9,29.94,South,185,0.0,0.0,83,0.00,,,0.00,VWS V14.01,2013-07-08 23:26:00,
2013-07-08 19:32:00,79.3,74.1,29.94,South,185,0.0,0.0,84,0.00,,,0.00,VWS V14.01,2013-07-08 23:32:00,
2013-07-08 19:37:00,79.0,73.8,29.94,South,185,0.0,0.0,84,0.00,,,0.00,VWS V14.01,2013-07-08 23:37:00,
2013-07-08 19:43:00,78.5,73.3,29.94,South,185,0.0,0.0,84,0.00,,,0.00,VWS V14.01,2013-07-08 23:43:00,
2013-07-08 19:48:00,78.1,73.2,29.95,South,185,0.0,0.0,85,0.00,,,0.00,VWS V14.01,2013-07-08 23:48:00,
2013-07-08 19:53:00,77.7,73.2,29.95,South,185,0.0,0.0,86,0.00,,,0.00,VWS V14.01,2013-07-08 23:53:00,
2013-07-08 19:58:00,77.5,73.3,29.95,South,185,0.0,0.0,87,0.00,,,0.00,VWS V14.01,2013-07-08 23:58:00,
2013-07-08 20:03:00,77.2,73.0,29.96,South,185,0.0,0.0,87,0.00,,,0.00,VWS V14.01,2013-07-09 00:03:00,
2013-07-08 20:08:00,76.9,72.4,29.97,East,85,0.0,5.0,86,0.00,,,0.00,VWS V14.01,2013-07-09 00:08:00,
2013-07-08 20:14:00,76.7,72.5,29.97,East,84,0.0,5.0,87,0.00,,,0.00,VWS V14.01,2013-07-09 00:14:00,
2013-07-08 20:19:00,76.6,72.1,29.97,NE,46,0.0,5.0,86,0.00,,,0.00,VWS V14.01,2013-07-09 00:19:00,
2013-07-08 20:24:00,76.5,71.3,29.97,East,86,0.0,5.0,84,0.00,,,0.00,VWS V14.01,2013-07-09 00:24:00,
2013-07-08 20:29:00,76.4,71.2,29.97,East,86,0.0,5.0,84,0.00,,,0.00,VWS V14.01,2013-07-09 00:29:00,
2013-07-08 20:34:00,76.2,71.4,29.97,East,86,0.0,0.0,85,0.00,,,0.00,VWS V14.01,2013-07-09 00:34:00,
2013-07-08 20:39:00,75.9,70.7,29.97,East,86,0.0,0.0,84,0.00,,,0.00,VWS V14.01,2013-07-09 00:39:00,
2013-07-08 20:44:00,75.6,70.4,29.97,East,86,0.0,0.0,84,0.00,,,0.00,VWS V14.01,2013-07-09 00:44:00,
2013-07-08 20:49:00,75.3,69.8,29.98,East,86,0.0,0.0,83,0.00,,,0.00,VWS V14.01,2013-07-09 00:49:00,
2013-07-08 20:54:00,75.0,70.2,29.98,East,86,0.0,0.0,85,0.00,,,0.00,VWS V14.01,2013-07-09 00:54:00,
2013-07-08 21:00:00,74.8,69.7,29.99,East,86,0.0,0.0,84,0.00,,,0.00,VWS V14.01,2013-07-09 01:00:00,
2013-07-08 21:05:00,74.6,69.8,29.99,East,86,0.0,0.0,85,0.00,,,0.00,VWS V14.01,2013-07-09 01:05:00,
2013-07-08 21:10:00,74.3,69.5,30.00,East,86,0.0,0.0,85,0.00,,,0.00,VWS V14.01,2013-07-09 01:10:00,
2013-07-08 21:15:00,74.0,68.9,30.00,East,86,0.0,0.0,84,0.00,,,0.00,VWS V14.01,2013-07-09 01:15:00,
2013-07-08 21:20:00,73.9,69.1,30.00,East,86,0.0,0.0,85,0.00,,,0.00,VWS V14.01,2013-07-09 01:20:00,
2013-07-08 21:25:00,73.8,69.0,30.00,East,86,0.0,0.0,85,0.00,,,0.00,VWS V14.01,2013-07-09 01:25:00,
2013-07-08 21:30:00,73.7,69.6,30.00,East,86,0.0,0.0,87,0.01,,,0.01,VWS V14.01,2013-07-09 01:30:00,
2013-07-08 21:36:00,73.5,69.7,30.00,East,86,0.0,1.0,88,0.01,,,0.01,VWS V14.01,2013-07-09 01:36:00,
2013-07-08 21:41:00,73.3,69.9,30.00,East,86,0.0,1.0,89,0.01,,,0.01,VWS V14.01,2013-07-09 01:41:00,
2013-07-08 21:46:00,72.9,69.8,30.00,East,86,0.0,1.0,90,0.01,,,0.01,VWS V14.01,2013-07-09 01:46:00,
2013-07-08 21:51:00,72.7,69.6,30.00,East,86,0.0,1.0,90,0.01,,,0.01,VWS V14.01,2013-07-09 01:51:00,
2013-07-08 21:57:00,72.3,69.5,30.00,East,86,0.0,1.0,91,0.01,,,0.01,VWS V14.01,2013-07-09 01:57:00,
2013-07-08 22:02:00,72.0,69.2,30.00,East,86,0.0,0.0,91,0.01,,,0.01,VWS V14.01,2013-07-09 02:02:00,
2013-07-08 22:08:00,71.7,69.3,30.00,East,86,0.0,0.0,92,0.01,,,0.01,VWS V14.01,2013-07-09 02:08:00,
2013-07-08 22:13:00,71.4,69.0,30.01,East,86,0.0,0.0,92,0.01,,,0.01,VWS V14.01,2013-07-09 02:13:00,
2013-07-08 22:18:00,71.1,69.0,30.01,East,86,0.0,0.0,93,0.01,,,0.01,VWS V14.01,2013-07-09 02:18:00,
2013-07-08 22:23:00,70.9,69.1,30.01,East,86,0.0,0.0,94,0.01,,,0.01,VWS V14.01,2013-07-09 02:23:00,
2013-07-08 22:28:00,70.7,68.9,30.00,East,86,0.0,0.0,94,0.01,,,0.01,VWS V14.01,2013-07-09 02:28:00,
2013-07-08 22:33:00,70.5,68.7,30.00,East,86,0.0,0.0,94,0.00,,,0.01,VWS V14.01,2013-07-09 02:33:00,
2013-07-08 22:38:00,70.4,68.6,30.01,East,86,0.0,0.0,94,0.00,,,0.01,VWS V14.01,2013-07-09 02:38:00,
2013-07-08 22:43:00,70.2,68.4,30.00,East,86,0.0,0.0,94,0.00,,,0.01,VWS V14.01,2013-07-09 02:43:00,
2013-07-08 22:48:00,70.0,68.2,30.01,East,86,0.0,0.0,94,0.00,,,0.01,VWS V14.01,2013-07-09 02:48:00,
2013-07-08 22:53:00,69.9,68.1,30.01,East,86,0.0,0.0,94,0.00,,,0.01,VWS V14.01,2013-07-09 02:53:00,
2013-07-08 22:58:00,69.7,68.2,30.00,East,86,0.0,0.0,95,0.00,,,0.01,VWS V14.01,2013-07-09 02:58:00,
2013-07-08 23:04:00,69.6,68.1,30.01,East,86,0.0,0.0,95,0.00,,,0.01,VWS V14.01,2013-07-09 03:04:00,
2013-07-08 23:09:00,69.5,68.0,30.01,East,86,0.0,0.0,95,0.00,,,0.01,VWS V14.01,2013-07-09 03:09:00,
2013-07-08 23:14:00,69.4,67.9,30.00,East,86,0.0,0.0,95,0.00,,,0.01,VWS V14.01,2013-07-09 03:14:00,
2013-07-08 23:19:00,69.2,67.7,30.01,East,86,0.0,0.0,95,0.00,,,0.01,VWS V14.01,2013-07-09 03:19:00,
2013-07-08 23:24:00,69.0,67.5,30.01,East,86,0.0,0.0,95,0.00,,,0.01,VWS V14.01,2013-07-09 03:24:00,
2013-07-08 23:29:00,68.8,67.3,30.00,East,86,0.0,0.0,95,0.00,,,0.01,VWS V14.01,2013-07-09 03:29:00,
2013-07-08 23:34:00,68.8,67.6,30.00,East,86,0.0,0.0,96,0.00,,,0.01,VWS V14.01,2013-07-09 03:34:00,
2013-07-08 23:39:00,68.6,67.4,30.00,East,86,0.0,0.0,96,0.00,,,0.01,VWS V14.01,2013-07-09 03:39:00,
2013-07-08 23:44:00,68.5,67.3,30.00,East,86,0.0,0.0,96,0.00,,,0.01,VWS V14.01,2013-07-09 03:44:00,
2013-07-08 23:50:00,68.4,67.2,30.00,East,86,0.0,0.0,96,0.00,,,0.01,VWS V14.01,2013-07-09 03:50:00,
2013-07-08 23:55:00,68.3,67.1,30.01,East,86,0.0,0.0,96,0.00,,,0.01,VWS V14.01,2013-07-09 03:55:00,